| time (UTC) | temp F | wind direction | speed MPH | gust MPH | rain 1hr in | rain 24hr in | rain mn in | humidity % | barometer mb |
| 20260510091057 | 58 | 137 | 0.0 | 3.0 | 0.00 | 0.00 | 0.00 | 71 | 1031.3 |
| 20260510090559 | 58 | 137 | 0.0 | 6.0 | 0.00 | 0.00 | 0.00 | 71 | 1031.3 |
| 20260510085558 | 58 | 159 | 0.0 | 2.0 | 0.00 | 0.00 | 0.00 | 70 | 1031.2 |
| 20260510085058 | 58 | 159 | 0.0 | 2.0 | 0.00 | 0.00 | 0.00 | 70 | 1031.1 |
| 20260510084612 | 58 | 161 | 0.0 | 2.0 | 0.00 | 0.00 | 0.00 | 70 | 1031.1 |
| 20260510084102 | 58 | 183 | 0.0 | 2.0 | 0.00 | 0.00 | 0.00 | 70 | 1031.1 |
| 20260510083558 | 58 | 184 | 0.0 | 3.0 | 0.00 | 0.00 | 0.00 | 70 | 1031.1 |
| 20260510083058 | 58 | 184 | 1.0 | 3.0 | 0.00 | 0.00 | 0.00 | 70 | 1031.0 |
| 20260510082557 | 58 | 114 | 0.0 | 3.0 | 0.00 | 0.00 | 0.00 | 70 | 1031.0 |
| 20260510082057 | 58 | 63 | 0.0 | 5.0 | 0.00 | 0.00 | 0.00 | 70 | 1030.9 |
| 20260510081600 | 58 | 109 | 1.0 | 5.0 | 0.00 | 0.00 | 0.00 | 70 | 1030.8 |
| 20260510081059 | 58 | 142 | 2.0 | 6.0 | 0.00 | 0.00 | 0.00 | 69 | 1030.8 |
| 20260510080601 | 59 | 155 | 2.0 | 5.0 | 0.00 | 0.00 | 0.00 | 69 | 1030.7 |
| 20260510080059 | 59 | 163 | 0.0 | 2.0 | 0.00 | 0.00 | 0.00 | 68 | 1030.7 |
| 20260510075557 | 59 | 163 | 0.0 | 2.0 | 0.00 | 0.00 | 0.00 | 68 | 1030.6 |
| 20260510075054 | 59 | 163 | 0.0 | 3.0 | 0.00 | 0.00 | 0.00 | 68 | 1030.6 |
| 20260510074555 | 59 | 155 | 1.0 | 3.0 | 0.00 | 0.00 | 0.00 | 67 | 1030.6 |
| 20260510074054 | 59 | 163 | 0.0 | 2.0 | 0.00 | 0.00 | 0.00 | 67 | 1030.5 |
| 20260510073553 | 59 | 162 | 0.0 | 2.0 | 0.00 | 0.00 | 0.00 | 67 | 1030.4 |
| 20260510073103 | 59 | 163 | 0.0 | 3.0 | 0.00 | 0.00 | 0.00 | 66 | 1030.5 |
| 20260510072554 | 60 | 162 | 0.0 | 3.0 | 0.00 | 0.00 | 0.00 | 66 | 1030.5 |
| 20260510072057 | 60 | 159 | 1.0 | 3.0 | 0.00 | 0.00 | 0.00 | 66 | 1030.4 |
| 20260510071554 | 60 | 189 | 1.0 | 4.0 | 0.00 | 0.00 | 0.00 | 67 | 1030.5 |
| 20260510071053 | 60 | 128 | 1.0 | 5.0 | 0.00 | 0.00 | 0.00 | 66 | 1030.4 |
| 20260510070553 | 60 | 170 | 2.0 | 6.0 | 0.00 | 0.00 | 0.00 | 66 | 1030.4 |
| 20260510070055 | 60 | 182 | 2.0 | 4.0 | 0.00 | 0.00 | 0.00 | 65 | 1030.4 |
| 20260510065553 | 61 | 157 | 0.0 | 3.0 | 0.00 | 0.00 | 0.00 | 65 | 1030.3 |
| 20260510065053 | 61 | 183 | 0.0 | 3.0 | 0.00 | 0.00 | 0.00 | 64 | 1030.3 |
| 20260510064554 | 61 | 183 | 1.0 | 7.0 | 0.00 | 0.00 | 0.00 | 64 | 1030.2 |
| 20260510064052 | 61 | 174 | 2.0 | 7.0 | 0.00 | 0.00 | 0.00 | 63 | 1030.2 |
| 20260510063552 | 62 | 144 | 1.0 | 7.0 | 0.00 | 0.00 | 0.00 | 63 | 1030.2 |
| 20260510063052 | 62 | 119 | 1.0 | 8.0 | 0.00 | 0.00 | 0.00 | 63 | 1030.1 |
| 20260510062551 | 62 | 115 | 2.0 | 8.0 | 0.00 | 0.00 | 0.00 | 62 | 1030.1 |
| 20260510062051 | 62 | 134 | 1.0 | 7.0 | 0.00 | 0.00 | 0.00 | 62 | 1030.1 |
| 20260510061555 | 63 | 128 | 2.0 | 10.0 | 0.00 | 0.00 | 0.00 | 62 | 1030.0 |
| 20260510061056 | 63 | 129 | 5.0 | 10.0 | 0.00 | 0.00 | 0.00 | 61 | 1030.1 |
| 20260510060553 | 63 | 92 | 3.0 | 8.0 | 0.00 | 0.00 | 0.00 | 62 | 1030.0 |
| 20260510060054 | 63 | 146 | 3.0 | 6.0 | 0.00 | 0.00 | 0.00 | 63 | 1030.0 |
| 20260510055552 | 63 | 186 | 1.0 | 4.0 | 0.00 | 0.00 | 0.00 | 63 | 1030.0 |
| 20260510055055 | 62 | 81 | 2.0 | 8.0 | 0.00 | 0.00 | 0.00 | 62 | 1029.9 |
| 20260510054551 | 62 | 128 | 2.0 | 8.0 | 0.00 | 0.00 | 0.00 | 62 | 1029.9 |
| 20260510054050 | 62 | 147 | 1.0 | 5.0 | 0.00 | 0.00 | 0.00 | 61 | 1029.9 |
| 20260510053550 | 63 | 114 | 1.0 | 4.0 | 0.00 | 0.00 | 0.00 | 61 | 1029.9 |
| 20260510053050 | 63 | 118 | 1.0 | 9.0 | 0.00 | 0.00 | 0.00 | 61 | 1029.9 |
| 20260510052550 | 63 | 133 | 4.0 | 9.0 | 0.00 | 0.00 | 0.00 | 60 | 1029.9 |
| 20260510052052 | 63 | 131 | 3.0 | 9.0 | 0.00 | 0.00 | 0.00 | 61 | 1029.8 |
| 20260510051549 | 63 | 107 | 3.0 | 9.0 | 0.00 | 0.00 | 0.00 | 61 | 1029.8 |
| 20260510051048 | 63 | 192 | 2.0 | 6.0 | 0.00 | 0.00 | 0.00 | 61 | 1029.8 |
| 20260510050548 | 63 | 135 | 1.0 | 6.0 | 0.00 | 0.00 | 0.00 | 61 | 1029.8 |
| 20260510050049 | 63 | 134 | 2.0 | 5.0 | 0.00 | 0.00 | 0.00 | 61 | 1029.8 |
| 20260510045549 | 63 | 113 | 2.0 | 5.0 | 0.00 | 0.00 | 0.00 | 62 | 1029.8 |
| 20260510045048 | 63 | 195 | 2.0 | 7.0 | 0.00 | 0.00 | 0.00 | 61 | 1029.8 |
| 20260510044555 | 63 | 150 | 3.0 | 8.0 | 0.00 | 0.00 | 0.00 | 61 | 1029.8 |
| 20260510044047 | 63 | 163 | 3.0 | 8.0 | 0.00 | 0.00 | 0.00 | 61 | 1029.8 |
| 20260510043548 | 63 | 130 | 3.0 | 8.0 | 0.00 | 0.00 | 0.00 | 62 | 1029.7 |
| 20260510043102 | 63 | 134 | 2.0 | 9.0 | 0.00 | 0.00 | 0.00 | 61 | 1029.7 |
| 20260510042548 | 63 | 120 | 3.0 | 9.0 | 0.00 | 0.00 | 0.00 | 62 | 1029.7 |
| 20260510042047 | 63 | 144 | 3.0 | 8.0 | 0.00 | 0.00 | 0.00 | 62 | 1029.6 |
| 20260510041547 | 63 | 115 | 1.0 | 9.0 | 0.00 | 0.00 | 0.00 | 62 | 1029.7 |
| 20260510041048 | 63 | 109 | 4.0 | 9.0 | 0.00 | 0.00 | 0.00 | 62 | 1029.8 |
| 20260510040546 | 63 | 179 | 1.0 | 9.0 | 0.00 | 0.00 | 0.00 | 61 | 1029.8 |
| 20260510040056 | 63 | 148 | 4.0 | 9.0 | 0.00 | 0.00 | 0.00 | 62 | 1029.9 |
| 20260510035545 | 63 | 161 | 2.0 | 7.0 | 0.00 | 0.00 | 0.00 | 64 | 1029.9 |
| 20260510035044 | 62 | 136 | 1.0 | 6.0 | 0.00 | 0.00 | 0.00 | 63 | 1029.9 |
| 20260510034547 | 62 | 173 | 2.0 | 7.0 | 0.00 | 0.00 | 0.00 | 64 | 1029.9 |
| 20260510034044 | 62 | 136 | 2.0 | 7.0 | 0.00 | 0.00 | 0.00 | 65 | 1029.9 |
| 20260510033544 | 62 | 136 | 1.0 | 5.0 | 0.00 | 0.00 | 0.00 | 64 | 1029.9 |
| 20260510033053 | 62 | 127 | 0.0 | 7.0 | 0.00 | 0.00 | 0.00 | 64 | 1029.9 |
| 20260510032545 | 62 | 134 | 2.0 | 7.0 | 0.00 | 0.00 | 0.00 | 63 | 1030.0 |
| 20260510032043 | 62 | 146 | 1.0 | 7.0 | 0.00 | 0.00 | 0.00 | 63 | 1030.0 |
| 20260510031544 | 62 | 107 | 4.0 | 8.0 | 0.00 | 0.00 | 0.00 | 64 | 1030.0 |
| 20260510031041 | 62 | 122 | 2.0 | 8.0 | 0.00 | 0.00 | 0.00 | 65 | 1030.0 |
| 20260510030540 | 62 | 147 | 2.0 | 7.0 | 0.00 | 0.00 | 0.00 | 65 | 1030.0 |
| 20260510030042 | 61 | 117 | 2.0 | 7.0 | 0.00 | 0.00 | 0.00 | 66 | 1030.1 |
| 20260510025538 | 61 | 92 | 1.0 | 6.0 | 0.00 | 0.00 | 0.00 | 66 | 1030.2 |
| 20260510025038 | 61 | 73 | 1.0 | 4.0 | 0.00 | 0.00 | 0.00 | 67 | 1030.3 |
| 20260510024539 | 60 | 162 | 1.0 | 4.0 | 0.00 | 0.00 | 0.00 | 68 | 1030.4 |
| 20260510024035 | 60 | 115 | 0.0 | 3.0 | 0.00 | 0.00 | 0.00 | 68 | 1030.5 |
| 20260510023533 | 60 | 61 | 0.0 | 4.0 | 0.00 | 0.00 | 0.00 | 68 | 1030.6 |
| 20260510023035 | 60 | 74 | 1.0 | 4.0 | 0.00 | 0.00 | 0.00 | 69 | 1030.7 |
| 20260510022534 | 59 | 167 | 1.0 | 4.0 | 0.00 | 0.00 | 0.00 | 68 | 1030.7 |
| 20260510022032 | 59 | 140 | 1.0 | 4.0 | 0.00 | 0.00 | 0.00 | 68 | 1030.8 |
| 20260510021534 | 59 | 180 | 1.0 | 4.0 | 0.00 | 0.00 | 0.00 | 69 | 1030.9 |
| 20260510021030 | 59 | 221 | 1.0 | 5.0 | 0.00 | 0.00 | 0.00 | 70 | 1031.0 |
| 20260510020531 | 59 | 211 | 2.0 | 5.0 | 0.00 | 0.00 | 0.00 | 71 | 1031.0 |
| 20260510020029 | 59 | 198 | 1.0 | 4.0 | 0.00 | 0.00 | 0.00 | 71 | 1031.2 |
| 20260510015528 | 59 | 192 | 1.0 | 5.0 | 0.00 | 0.00 | 0.00 | 72 | 1031.2 |
| 20260510015027 | 59 | 190 | 1.0 | 5.0 | 0.00 | 0.00 | 0.00 | 72 | 1031.3 |
| 20260510014528 | 59 | 141 | 1.0 | 4.0 | 0.00 | 0.00 | 0.00 | 73 | 1031.3 |
| 20260510014026 | 59 | 118 | 1.0 | 4.0 | 0.00 | 0.00 | 0.00 | 73 | 1031.3 |
| 20260510013526 | 59 | 148 | 1.0 | 3.0 | 0.00 | 0.00 | 0.00 | 74 | 1031.3 |
| 20260510013026 | 59 | 126 | 1.0 | 4.0 | 0.00 | 0.00 | 0.00 | 74 | 1031.4 |
| 20260510012525 | 59 | 128 | 1.0 | 5.0 | 0.00 | 0.00 | 0.00 | 74 | 1031.4 |
| 20260510012026 | 58 | 142 | 1.0 | 7.0 | 0.00 | 0.00 | 0.00 | 74 | 1031.5 |
| 20260510011536 | 58 | 115 | 2.0 | 7.0 | 0.00 | 0.00 | 0.00 | 74 | 1031.4 |
| 20260510011022 | 58 | 163 | 0.0 | 6.0 | 0.00 | 0.00 | 0.00 | 74 | 1031.5 |
| 20260510010522 | 58 | 157 | 2.0 | 6.0 | 0.00 | 0.00 | 0.00 | 74 | 1031.5 |
| 20260510010020 | 58 | 127 | 1.0 | 5.0 | 0.00 | 0.00 | 0.00 | 75 | 1031.5 |
| 20260510005519 | 57 | 120 | 1.0 | 5.0 | 0.00 | 0.00 | 0.00 | 76 | 1031.5 |
| 20260510005016 | 57 | 133 | 0.0 | 4.0 | 0.00 | 0.00 | 0.00 | 77 | 1031.5 |
| 20260510004515 | 57 | 140 | 2.0 | 5.0 | 0.00 | 0.00 | 0.00 | 78 | 1031.5 |
| 20260510004014 | 57 | 141 | 2.0 | 7.0 | 0.00 | 0.00 | 0.00 | 80 | 1031.5 |
| 20260510003513 | 56 | 143 | 1.0 | 7.0 | 0.00 | 0.00 | 0.00 | 81 | 1031.5 |
| 20260510003011 | 56 | 126 | 1.0 | 3.0 | 0.00 | 0.00 | 0.00 | 83 | 1031.6 |
| 20260510002511 | 56 | 132 | 1.0 | 6.0 | 0.00 | 0.00 | 0.00 | 84 | 1031.6 |
| 20260510002009 | 56 | 174 | 1.0 | 6.0 | 0.00 | 0.00 | 0.00 | 86 | 1031.6 |
| 20260510001507 | 56 | 169 | 3.0 | 6.0 | 0.00 | 0.00 | 0.00 | 87 | 1031.6 |
| 20260510001007 | 55 | 148 | 1.0 | 4.0 | 0.00 | 0.00 | 0.00 | 89 | 1031.6 |
| 20260510000506 | 55 | 138 | 0.0 | 5.0 | 0.00 | 0.00 | 0.00 | 90 | 1031.6 |
| 20260510000012 | 55 | 248 | 2.0 | 5.0 | 0.00 | 0.00 | 0.00 | 90 | 1031.5 |
| 20260509235504 | 55 | 169 | 1.0 | 3.0 | 0.00 | 0.00 | 0.00 | 91 | 1031.6 |
| 20260509235010 | 55 | 177 | 1.0 | 3.0 | 0.00 | 0.00 | 0.00 | 92 | 1031.6 |
| 20260509234509 | 55 | 217 | 0.0 | 2.0 | 0.00 | 0.00 | 0.00 | 92 | 1031.5 |
| 20260509234008 | 55 | 219 | 0.0 | 2.0 | 0.00 | 0.00 | 0.00 | 92 | 1031.6 |
| 20260509233509 | 55 | 219 | 0.0 | 1.0 | 0.00 | 0.00 | 0.00 | 92 | 1031.6 |
| 20260509233005 | 54 | 219 | 0.0 | 1.0 | 0.00 | 0.00 | 0.00 | 92 | 1031.5 |
| 20260509232505 | 54 | 219 | 0.0 | 1.0 | 0.00 | 0.00 | 0.00 | 92 | 1031.5 |
| 20260509232004 | 54 | 219 | 0.0 | 1.0 | 0.00 | 0.00 | 0.00 | 92 | 1031.5 |
| 20260509231504 | 54 | 219 | 0.0 | 1.0 | 0.00 | 0.00 | 0.00 | 92 | 1031.5 |
| 20260509231003 | 54 | 219 | 0.0 | 1.0 | 0.00 | 0.00 | 0.00 | 93 | 1031.5 |
| 20260509230503 | 54 | 219 | 0.0 | 1.0 | 0.00 | 0.00 | 0.00 | 93 | 1031.4 |
| 20260509230002 | 54 | 219 | 0.0 | 1.0 | 0.00 | 0.00 | 0.00 | 93 | 1031.4 |
| 20260509225501 | 54 | 219 | 0.0 | 1.0 | 0.00 | 0.00 | 0.00 | 93 | 1031.3 |
| 20260509224556 | 54 | 219 | 0.0 | 1.0 | 0.00 | 0.00 | 0.00 | 93 | 1031.3 |
| 20260509224056 | 54 | 219 | 0.0 | 1.0 | 0.00 | 0.00 | 0.00 | 93 | 1031.3 |
| 20260509223553 | 54 | 219 | 0.0 | 0.0 | 0.00 | 0.00 | 0.00 | 93 | 1031.3 |
| 20260509223100 | 54 | 219 | 0.0 | 0.0 | 0.00 | 0.00 | 0.00 | 93 | 1031.3 |
| 20260509222550 | 54 | 219 | 0.0 | 0.0 | 0.00 | 0.00 | 0.00 | 93 | 1031.3 |
| 20260509222049 | 54 | 219 | 0.0 | 0.0 | 0.00 | 0.00 | 0.00 | 93 | 1031.3 |
| 20260509221549 | 54 | 219 | 0.0 | 1.0 | 0.00 | 0.00 | 0.00 | 92 | 1031.2 |
| 20260509221047 | 54 | 219 | 0.0 | 1.0 | 0.00 | 0.00 | 0.00 | 92 | 1031.1 |
| 20260509220646 | 54 | 219 | 0.0 | 1.0 | 0.00 | 0.00 | 0.00 | 92 | 1031.0 |
| 20260509220047 | 54 | 219 | 0.0 | 1.0 | 0.00 | 0.00 | 0.00 | 93 | 1031.0 |
| 20260509215545 | 54 | 219 | 0.0 | 2.0 | 0.00 | 0.00 | 0.00 | 93 | 1030.9 |
| 20260509215144 | 53 | 219 | 0.0 | 2.0 | 0.00 | 0.00 | 0.00 | 92 | 1030.8 |
| 20260509214541 | 53 | 219 | 0.0 | 0.0 | 0.00 | 0.00 | 0.00 | 92 | 1030.7 |
| 20260509214040 | 53 | 219 | 0.0 | 0.0 | 0.00 | 0.00 | 0.00 | 92 | 1030.7 |
| 20260509213539 | 53 | 219 | 0.0 | 0.0 | 0.00 | 0.00 | 0.00 | 92 | 1030.6 |
| 20260509213040 | 53 | 219 | 0.0 | 0.0 | 0.00 | 0.00 | 0.00 | 92 | 1030.6 |
| 20260509212537 | 53 | 219 | 0.0 | 1.0 | 0.00 | 0.00 | 0.00 | 92 | 1030.5 |
| 20260509212037 | 53 | 219 | 0.0 | 1.0 | 0.00 | 0.00 | 0.00 | 92 | 1030.4 |
| 20260509211538 | 53 | 219 | 0.0 | 1.0 | 0.00 | 0.00 | 0.00 | 92 | 1030.4 |
| 20260509211036 | 53 | 219 | 0.0 | 1.0 | 0.00 | 0.00 | 0.00 | 92 | 1030.3 |
| 20260509210535 | 53 | 219 | 0.0 | 0.0 | 0.00 | 0.00 | 0.00 | 92 | 1030.3 |
| 20260509210041 | 53 | 219 | 0.0 | 1.0 | 0.00 | 0.00 | 0.00 | 92 | 1030.3 |
| 20260509205535 | 53 | 219 | 0.0 | 1.0 | 0.00 | 0.00 | 0.00 | 92 | 1030.3 |
| 20260509205136 | 53 | 219 | 0.0 | 1.0 | 0.00 | 0.00 | 0.00 | 92 | 1030.2 |
| 20260509204541 | 53 | 219 | 0.0 | 1.0 | 0.00 | 0.00 | 0.00 | 92 | 1030.2 |
| 20260509204035 | 53 | 219 | 0.0 | 0.0 | 0.00 | 0.00 | 0.00 | 92 | 1030.2 |
| 20260509203535 | 54 | 219 | 0.0 | 1.0 | 0.00 | 0.00 | 0.00 | 92 | 1030.1 |
| 20260509203033 | 54 | 219 | 0.0 | 2.0 | 0.00 | 0.00 | 0.00 | 92 | 1030.2 |
| 20260509202533 | 54 | 219 | 0.0 | 2.0 | 0.00 | 0.00 | 0.00 | 92 | 1030.2 |
| 20260509202034 | 54 | 219 | 0.0 | 2.0 | 0.00 | 0.00 | 0.00 | 92 | 1030.1 |
| 20260509201537 | 54 | 219 | 0.0 | 2.0 | 0.00 | 0.00 | 0.00 | 92 | 1030.0 |
| 20260509201032 | 54 | 219 | 0.0 | 2.0 | 0.00 | 0.00 | 0.00 | 92 | 1029.9 |
| 20260509200532 | 54 | 219 | 0.0 | 1.0 | 0.00 | 0.00 | 0.00 | 92 | 1029.9 |
| 20260509200034 | 54 | 219 | 0.0 | 3.0 | 0.00 | 0.00 | 0.00 | 92 | 1029.9 |
| 20260509195532 | 54 | 219 | 0.0 | 3.0 | 0.00 | 0.00 | 0.00 | 92 | 1029.9 |
| 20260509195130 | 54 | 223 | 0.0 | 2.0 | 0.00 | 0.00 | 0.00 | 92 | 1029.8 |
| 20260509194534 | 54 | 223 | 0.0 | 2.0 | 0.00 | 0.00 | 0.00 | 92 | 1029.7 |
| 20260509194028 | 54 | 223 | 0.0 | 2.0 | 0.00 | 0.00 | 0.00 | 92 | 1029.6 |
| 20260509193528 | 54 | 223 | 0.0 | 3.0 | 0.00 | 0.00 | 0.00 | 92 | 1029.6 |
| 20260509193029 | 54 | 224 | 1.0 | 3.0 | 0.00 | 0.00 | 0.00 | 92 | 1029.5 |
| 20260509192525 | 54 | 214 | 0.0 | 3.0 | 0.00 | 0.00 | 0.00 | 92 | 1029.5 |
| 20260509192028 | 54 | 205 | 1.0 | 3.0 | 0.00 | 0.00 | 0.00 | 92 | 1029.4 |
| 20260509191527 | 54 | 210 | 0.0 | 3.0 | 0.00 | 0.00 | 0.00 | 92 | 1029.3 |
| 20260509191024 | 54 | 192 | 1.0 | 3.0 | 0.00 | 0.00 | 0.00 | 92 | 1029.2 |
| 20260509190523 | 54 | 235 | 0.0 | 4.0 | 0.00 | 0.00 | 0.00 | 92 | 1029.3 |
| 20260509190023 | 54 | 249 | 1.0 | 4.0 | 0.00 | 0.00 | 0.00 | 92 | 1029.2 |
| 20260509185522 | 54 | 205 | 0.0 | 5.0 | 0.00 | 0.00 | 0.00 | 92 | 1029.2 |
| 20260509185122 | 54 | 215 | 1.0 | 5.0 | 0.00 | 0.00 | 0.00 | 92 | 1029.1 |
| 20260509184534 | 54 | 177 | 1.0 | 2.0 | 0.00 | 0.00 | 0.00 | 92 | 1029.0 |
| 20260509184019 | 54 | 175 | 0.0 | 3.0 | 0.00 | 0.00 | 0.00 | 92 | 1029.0 |
| 20260509183519 | 54 | 198 | 0.0 | 3.0 | 0.00 | 0.00 | 0.00 | 92 | 1029.0 |
| 20260509183020 | 54 | 198 | 1.0 | 3.0 | 0.00 | 0.00 | 0.00 | 92 | 1028.9 |
| 20260509182519 | 54 | 196 | 0.0 | 2.0 | 0.00 | 0.00 | 0.00 | 92 | 1028.9 |
| 20260509182018 | 54 | 196 | 0.0 | 3.0 | 0.00 | 0.00 | 0.00 | 92 | 1028.9 |
| 20260509181519 | 54 | 217 | 1.0 | 3.0 | 0.00 | 0.00 | 0.00 | 92 | 1028.9 |
| 20260509181019 | 54 | 226 | 1.0 | 5.0 | 0.00 | 0.00 | 0.00 | 92 | 1028.8 |
| 20260509180518 | 54 | 206 | 1.0 | 5.0 | 0.00 | 0.00 | 0.00 | 92 | 1028.7 |
| 20260509180018 | 54 | 207 | 2.0 | 4.0 | 0.00 | 0.00 | 0.00 | 92 | 1028.8 |
| 20260509175520 | 54 | 236 | 1.0 | 4.0 | 0.00 | 0.00 | 0.00 | 92 | 1028.7 |
| 20260509175118 | 54 | 243 | 2.0 | 4.0 | 0.00 | 0.00 | 0.00 | 91 | 1028.7 |
| 20260509174518 | 54 | 197 | 1.0 | 3.0 | 0.00 | 0.00 | 0.00 | 91 | 1028.7 |
| 20260509174017 | 54 | 207 | 0.0 | 2.0 | 0.00 | 0.00 | 0.00 | 91 | 1028.7 |
| 20260509173517 | 54 | 207 | 0.0 | 3.0 | 0.00 | 0.00 | 0.00 | 91 | 1028.7 |
| 20260509173017 | 54 | 205 | 0.0 | 4.0 | 0.00 | 0.00 | 0.00 | 91 | 1028.7 |
| 20260509172515 | 54 | 229 | 1.0 | 4.0 | 0.00 | 0.00 | 0.00 | 91 | 1028.8 |
| 20260509172016 | 54 | 223 | 1.0 | 4.0 | 0.00 | 0.00 | 0.00 | 91 | 1028.8 |
| 20260509171517 | 54 | 216 | 1.0 | 4.0 | 0.00 | 0.00 | 0.00 | 91 | 1028.8 |
| 20260509171015 | 54 | 208 | 1.0 | 4.0 | 0.00 | 0.00 | 0.00 | 91 | 1028.8 |
| 20260509170514 | 54 | 263 | 0.0 | 4.0 | 0.00 | 0.00 | 0.00 | 91 | 1028.8 |
| 20260509170016 | 54 | 239 | 0.0 | 4.0 | 0.00 | 0.00 | 0.00 | 91 | 1028.8 |
| 20260509165513 | 54 | 236 | 1.0 | 4.0 | 0.00 | 0.00 | 0.00 | 91 | 1028.9 |
| 20260509165114 | 54 | 241 | 1.0 | 4.0 | 0.00 | 0.00 | 0.00 | 91 | 1028.9 |
| 20260509164512 | 54 | 198 | 0.0 | 2.0 | 0.00 | 0.00 | 0.00 | 91 | 1028.9 |
| 20260509164012 | 55 | 219 | 0.0 | 6.0 | 0.00 | 0.00 | 0.00 | 91 | 1029.0 |
| 20260509163511 | 55 | 212 | 2.0 | 6.0 | 0.00 | 0.00 | 0.00 | 91 | 1029.0 |
| 20260509163016 | 55 | 241 | 1.0 | 6.0 | 0.00 | 0.00 | 0.00 | 91 | 1029.0 |
| 20260509162510 | 55 | 208 | 2.0 | 6.0 | 0.00 | 0.00 | 0.00 | 90 | 1028.9 |
| 20260509162010 | 55 | 213 | 2.0 | 6.0 | 0.00 | 0.00 | 0.00 | 90 | 1028.9 |
| 20260509161510 | 55 | 191 | 2.0 | 5.0 | 0.00 | 0.00 | 0.00 | 90 | 1029.0 |
| 20260509161011 | 55 | 199 | 1.0 | 6.0 | 0.00 | 0.00 | 0.00 | 90 | 1029.0 |
| 20260509160508 | 55 | 196 | 1.0 | 5.0 | 0.00 | 0.00 | 0.00 | 90 | 1029.0 |
| 20260509160008 | 55 | 216 | 1.0 | 5.0 | 0.00 | 0.00 | 0.00 | 90 | 1029.0 |
| 20260509155507 | 55 | 172 | 1.0 | 4.0 | 0.00 | 0.00 | 0.00 | 90 | 1029.0 |
| 20260509155107 | 55 | 186 | 1.0 | 5.0 | 0.00 | 0.00 | 0.00 | 89 | 1029.0 |
| 20260509154508 | 55 | 175 | 1.0 | 5.0 | 0.00 | 0.00 | 0.00 | 89 | 1029.0 |
| 20260509154008 | 55 | 178 | 0.0 | 3.0 | 0.00 | 0.00 | 0.00 | 89 | 1029.1 |
| 20260509153506 | 55 | 159 | 0.0 | 2.0 | 0.00 | 0.00 | 0.00 | 89 | 1029.1 |
| 20260509153005 | 55 | 159 | 0.0 | 2.0 | 0.00 | 0.00 | 0.00 | 89 | 1029.1 |
| 20260509152605 | 55 | 159 | 0.0 | 2.0 | 0.00 | 0.00 | 0.00 | 89 | 1029.0 |
| 20260509152004 | 55 | 159 | 0.0 | 3.0 | 0.00 | 0.00 | 0.00 | 89 | 1029.0 |
| 20260509151503 | 55 | 159 | 0.0 | 3.0 | 0.00 | 0.00 | 0.00 | 88 | 1029.1 |
| 20260509151002 | 55 | 114 | 0.0 | 2.0 | 0.00 | 0.00 | 0.00 | 88 | 1029.1 |
| 20260509150502 | 55 | 113 | 0.0 | 2.0 | 0.00 | 0.00 | 0.00 | 88 | 1029.1 |
| 20260509150001 | 55 | 355 | 0.0 | 1.0 | 0.00 | 0.00 | 0.00 | 88 | 1029.0 |
| 20260509145501 | 55 | 355 | 0.0 | 1.0 | 0.00 | 0.00 | 0.00 | 88 | 1029.0 |
| 20260509145101 | 55 | 345 | 0.0 | 1.0 | 0.00 | 0.00 | 0.00 | 88 | 1029.0 |
| 20260509144502 | 55 | 345 | 0.0 | 1.0 | 0.00 | 0.00 | 0.00 | 88 | 1029.0 |
| 20260509144101 | 55 | 345 | 0.0 | 0.0 | 0.00 | 0.00 | 0.00 | 88 | 1028.9 |
| 20260509143600 | 55 | 345 | 0.0 | 1.0 | 0.00 | 0.00 | 0.00 | 88 | 1028.9 |
| 20260509143129 | 55 | 345 | 0.0 | 1.0 | 0.00 | 0.00 | 0.00 | 88 | 1028.9 |
| 20260509142559 | 55 | 345 | 0.0 | 1.0 | 0.00 | 0.00 | 0.00 | 87 | 1028.9 |
| 20260509142102 | 55 | 345 | 0.0 | 0.0 | 0.00 | 0.00 | 0.00 | 87 | 1028.9 |
| 20260509141557 | 55 | 345 | 0.0 | 0.0 | 0.00 | 0.00 | 0.00 | 87 | 1028.9 |
| 20260509141057 | 55 | 345 | 0.0 | 1.0 | 0.00 | 0.00 | 0.00 | 87 | 1028.9 |
| 20260509140555 | 55 | 345 | 0.0 | 1.0 | 0.00 | 0.00 | 0.00 | 87 | 1029.0 |
| 20260509140104 | 55 | 345 | 0.0 | 1.0 | 0.00 | 0.00 | 0.00 | 87 | 1029.0 |
| 20260509135555 | 55 | 345 | 0.0 | 1.0 | 0.00 | 0.00 | 0.00 | 87 | 1029.0 |
| 20260509135057 | 55 | 345 | 0.0 | 2.0 | 0.00 | 0.00 | 0.00 | 87 | 1029.0 |
| 20260509134611 | 55 | 345 | 0.0 | 3.0 | 0.00 | 0.00 | 0.00 | 87 | 1029.0 |
| 20260509134056 | 55 | 26 | 1.0 | 3.0 | 0.00 | 0.00 | 0.00 | 87 | 1029.0 |
| 20260509133556 | 55 | 346 | 1.0 | 2.0 | 0.00 | 0.00 | 0.00 | 87 | 1029.0 |
| 20260509133056 | 55 | 345 | 0.0 | 1.0 | 0.00 | 0.00 | 0.00 | 86 | 1029.0 |
| 20260509132556 | 55 | 345 | 0.0 | 1.0 | 0.00 | 0.00 | 0.00 | 86 | 1029.0 |
| 20260509132058 | 55 | 345 | 0.0 | 0.0 | 0.00 | 0.00 | 0.00 | 86 | 1029.1 |
| 20260509131556 | 55 | 345 | 0.0 | 1.0 | 0.00 | 0.00 | 0.00 | 86 | 1029.1 |
| 20260509131055 | 55 | 345 | 0.0 | 1.0 | 0.00 | 0.00 | 0.00 | 86 | 1029.0 |
| 20260509130555 | 55 | 345 | 0.0 | 0.0 | 0.00 | 0.00 | 0.00 | 86 | 1029.1 |
| 20260509130100 | 55 | 345 | 0.0 | 2.0 | 0.00 | 0.00 | 0.00 | 86 | 1029.1 |
| 20260509125555 | 55 | 345 | 0.0 | 3.0 | 0.00 | 0.00 | 0.00 | 86 | 1029.0 |
| 20260509125054 | 55 | 28 | 1.0 | 3.0 | 0.00 | 0.00 | 0.00 | 86 | 1029.0 |
| 20260509124553 | 55 | 63 | 0.0 | 2.0 | 0.00 | 0.00 | 0.00 | 86 | 1029.0 |
| 20260509124053 | 55 | 67 | 0.0 | 2.0 | 0.00 | 0.00 | 0.00 | 86 | 1029.0 |
| 20260509123553 | 55 | 75 | 0.0 | 1.0 | 0.00 | 0.00 | 0.00 | 85 | 1029.0 |
| 20260509123118 | 54 | 75 | 0.0 | 1.0 | 0.00 | 0.00 | 0.00 | 85 | 1029.0 |
| 20260509122552 | 55 | 75 | 0.0 | 1.0 | 0.00 | 0.00 | 0.00 | 85 | 1029.0 |
| 20260509122052 | 55 | 75 | 0.0 | 1.0 | 0.00 | 0.00 | 0.00 | 85 | 1029.1 |
| 20260509121610 | 54 | 75 | 0.0 | 1.0 | 0.00 | 0.00 | 0.00 | 85 | 1029.0 |
| 20260509121052 | 54 | 75 | 0.0 | 1.0 | 0.00 | 0.00 | 0.00 | 85 | 1029.0 |
| 20260509120552 | 54 | 75 | 0.0 | 1.0 | 0.00 | 0.00 | 0.00 | 85 | 1029.1 |
| 20260509115550 | 54 | 75 | 0.0 | 0.0 | 0.00 | 0.00 | 0.00 | 84 | 1029.1 |
| 20260509115051 | 54 | 75 | 0.0 | 0.0 | 0.00 | 0.00 | 0.00 | 84 | 1029.0 |
| 20260509114552 | 54 | 75 | 0.0 | 0.0 | 0.00 | 0.00 | 0.00 | 84 | 1029.0 |
| 20260509114051 | 54 | 75 | 0.0 | 0.0 | 0.00 | 0.00 | 0.00 | 84 | 1028.9 |
| 20260509113553 | 54 | 75 | 0.0 | 0.0 | 0.00 | 0.00 | 0.00 | 84 | 1028.9 |
| 20260509113049 | 54 | 75 | 0.0 | 1.0 | 0.00 | 0.00 | 0.00 | 84 | 1028.8 |
| 20260509112547 | 54 | 75 | 0.0 | 1.0 | 0.00 | 0.00 | 0.00 | 84 | 1028.8 |
| 20260509112048 | 54 | 75 | 0.0 | 1.0 | 0.00 | 0.00 | 0.00 | 84 | 1028.7 |
| 20260509111600 | 54 | 75 | 0.0 | 2.0 | 0.00 | 0.00 | 0.00 | 84 | 1028.8 |
| 20260509111048 | 54 | 75 | 0.0 | 2.0 | 0.00 | 0.00 | 0.00 | 84 | 1028.8 |
| 20260509110547 | 54 | 171 | 0.0 | 1.0 | 0.00 | 0.00 | 0.00 | 83 | 1028.7 |
| 20260509110047 | 54 | 171 | 0.0 | 1.0 | 0.00 | 0.00 | 0.00 | 83 | 1028.7 |
| 20260509105547 | 54 | 171 | 0.0 | 1.0 | 0.00 | 0.00 | 0.00 | 83 | 1028.7 |
| 20260509105047 | 54 | 171 | 0.0 | 1.0 | 0.00 | 0.00 | 0.00 | 82 | 1028.8 |
| 20260509104548 | 54 | 171 | 0.0 | 0.0 | 0.00 | 0.00 | 0.00 | 82 | 1028.8 |
| 20260509104046 | 54 | 171 | 0.0 | 1.0 | 0.00 | 0.00 | 0.00 | 82 | 1028.8 |
| 20260509103546 | 54 | 171 | 0.0 | 1.0 | 0.00 | 0.00 | 0.00 | 82 | 1028.8 |
| 20260509103059 | 54 | 171 | 0.0 | 1.0 | 0.00 | 0.00 | 0.00 | 82 | 1028.7 |
| 20260509102545 | 54 | 171 | 0.0 | 0.0 | 0.00 | 0.00 | 0.00 | 81 | 1028.7 |
| 20260509102046 | 54 | 171 | 0.0 | 0.0 | 0.00 | 0.00 | 0.00 | 81 | 1028.7 |
| 20260509101616 | 54 | 171 | 0.0 | 0.0 | 0.00 | 0.00 | 0.00 | 80 | 1028.7 |
| 20260509101044 | 54 | 171 | 0.0 | 0.0 | 0.00 | 0.00 | 0.00 | 79 | 1028.6 |
| 20260509100545 | 54 | 171 | 0.0 | 0.0 | 0.00 | 0.00 | 0.00 | 79 | 1028.6 |
| 20260509100045 | 54 | 171 | 0.0 | 0.0 | 0.00 | 0.00 | 0.00 | 78 | 1028.6 |
| 20260509095545 | 54 | 171 | 0.0 | 0.0 | 0.00 | 0.00 | 0.00 | 77 | 1028.6 |
| 20260509095045 | 54 | 171 | 0.0 | 1.0 | 0.00 | 0.00 | 0.00 | 77 | 1028.6 |
| 20260509094545 | 54 | 171 | 0.0 | 0.0 | 0.00 | 0.00 | 0.00 | 77 | 1028.5 |
| 20260509094045 | 55 | 171 | 0.0 | 0.0 | 0.00 | 0.00 | 0.00 | 76 | 1028.6 |
| 20260509093545 | 55 | 171 | 0.0 | 0.0 | 0.00 | 0.00 | 0.00 | 76 | 1028.6 |
| 20260509093045 | 55 | 171 | 0.0 | 0.0 | 0.00 | 0.00 | 0.00 | 75 | 1028.6 |
| 20260509092544 | 55 | 171 | 0.0 | 0.0 | 0.00 | 0.00 | 0.00 | 75 | 1028.6 |
| 20260509092044 | 56 | 171 | 0.0 | 0.0 | 0.00 | 0.00 | 0.00 | 74 | 1028.5 |
| 20260509091544 | 56 | 171 | 0.0 | 0.0 | 0.00 | 0.00 | 0.00 | 74 | 1028.5 |